ARIANE 40 R/B

Satellite information

Favourite Embed

Satellite Type and Status

ROCKET BODYIN ORBIT

Key statistics

Satellite ARIANE 40 R/B at a glance.

Uptime

11547

Days in orbit

Revolutions

≈ 14.3

Per day

Orbit

SSO

Sun Synchronous Orbit

Inclination

98.5

Latest

Satellite identification and parameters

Extended collection of information and parameters for ARIANE 40 R/B.

Object identification

Identified? True

Debris? False

Object name: ARIANE 40 R/B

International designator: 1993-061H

Object number (NORAD): 22830

Object ID (CCSDS): 22830

Country: FRANCE (FR)

Current information (Y/N): Y

RCS size: LARGE

Orbital parameters

Period: 100.514 minutes

Inclination: 98.5281 deg

SMA: 7161.051 km

Apoapsis: 791.494 km

Periapsis: 774.338 km

RAAN: 197.0284 deg

Eccentricy: 0.0011979

Argument of periapsis: 108.2797 deg

Mean anomaly: 251.9691 deg

Mean motion: 14.32641797 rev/day

Mean motion (dot): 0.00000296 rev/day2

B* drag term: 0.00012474 1/REarth

Two-line elements (TLE)

Creation date: May 8, 2025, 3:01 a.m.

Reference frame: TEME

Reference center: EARTH

Epoch: May 7, 2025, 7:35 p.m. UTC

TLE line 0: 0 ARIANE 40 R/B

TLE line 1: 1 22830U 93061H 25127.81605212 .00000296 00000-0 12474-3 0 9994

TLE line 2: 2 22830 98.5281 197.0284 0011979 108.2797 251.9691 14.32641797650303

Live tracking on map

Real-time ground track for satellite ARIANE 40 R/B.

In-orbit conjunctions

A list of the most updated potential collisions computed for object ARIANE 40 R/B.

Target Orbit TCA Probability of collision Miss distance Type
FENGYUN 1C DEB SSO 2025-03-27 05:47:16 0.0001009475 829.0 (m) DEBRIS
FENGYUN 1C DEB SSO 2025-02-07 16:13:50 0.0001158974 420.0 (m) DEBRIS
THOR ABLESTAR DEB LEO 2024-09-26 21:59:34 0.001085557 594.0 (m) DEBRIS
FENGYUN 1C DEB SSO 2024-09-03 18:08:31 0.000151602 600.0 (m) DEBRIS

Associated space launch

The satellites SPOT 1, 2 and 3 (Satellite Probatoire de l'Observation de la Terre) were the first generation of SPOT earth observation satellites operated by Spot Image.

ARIANE 40 R/B was lifted into orbit during the mission ‘Ariane 40 | SPOT 3’, on board a Ariane 40 space rocket.

The launch took place on Sept. 26, 1993, 1:45 a.m. from Ariane Launch Area 2.

For more information about the launch, click the button.

Launch to space Ariane 40 | SPOT 3
Ariane 40 | SPOT 3

Agency: N/A

Status: Launch Successful

Launch date: Sept. 26, 1993, 1:45 a.m. UTC

Rocket: Ariane 40

Launch pad: Ariane Launch Area 2

Location: Guiana Space Centre, French Guiana

...

Latest news about this satellite

There are no fresh news available about this satellite. Check back as we update our databases every day.


Newsletter sign-up

Weekly statistics, charts and insights to help you stay on top of the space industry.